IRS 1D

导读

IRS-1D是印度(IN)于1997年9月29日发射的遥感卫星,隶属于印度遥感卫星系列。它作为印度新一代遥感卫星,搭载了多光谱扫描仪、宽幅传感器等先进载荷,地面分辨率进一步提升。该卫星主要服务于农业估产、资源勘探、环境监测、灾害预警及国土测绘等领域,显著增强了印度自主遥感观测能力,推动了印度遥感应用产业化发展,为区域资源管理和规划提供了可靠数据支撑。

Basic Information
目录编号:
24971
目录名称:
IRS 1D
国际标识:
1997-057A
轨道中心:
EARTH
卫星名称:
IRS 1D
卫星全名:
--
卫星状态:
在轨 (已飞行10515 天)
发射日期:
1997-09-29 UTC
国别 :
印度 (IN)
星等 :
--
Orbit Information
数据来源 国际轨道数据 AOE轨道数据
星历时间 2026-07-14T07:10:15+0800
9小时前
查看轨道信息
2026-07-10T14:00:00+0800
4天前
查看轨道信息
半长轴 7151.468km 7151.471km
偏心率 0.0052694 0.0052338
轨道倾角 98.844° 98.843°
近地点辐角 148.114° 158.858°
升交点赤经 190.051° 186.242°
平近点角 212.325° 91.526°
近地点 735.647km 735.904km
远地点 811.015km 810.764km
周期 100.312分钟 100.312分钟
每日圈数 14.355224 14.355216
Detailed Information
使用方式:
暂无
2D Orbit Map
3D Orbit Map
Orbit Altitude Analysis Chart
Orbit Inclination Analysis Chart
Orbit Comprehensive Analysis Chart
View Comprehensive Chart